Petersburg, WV

4:29 PM EDT on September 26, 2016 (GMT -0400)
Petersburg

Weather History for KW99 - October, 2013

Change the Weather History Date:

Monday, October 7, 2013

  Actual Average (KEKN) Record (KEKN)
Temperature  
Mean Temperature 60 °F 54 °F  
Max Temperature 72 °F 67 °F 85 °F (1941)
Min Temperature 48 °F 42 °F 24 °F (1964)
Degree Days  
Heating Degree Days 5 11  
Month to date heating degree days 70  
Since 1 July heating degree days 230  
Cooling Degree Days 0 0  
Month to date cooling degree days 0  
Year to date cooling degree days 471  
Growing Degree Days 10 (Base 50)    
Moisture  
Dew Point 54 °F    
Average Humidity 77    
Maximum Humidity 96    
Minimum Humidity 51    
Precipitation  
Precipitation 0.57 in 0.10 in 1.77 in (1911)
Month to date precipitation 0.65  
Year to date precipitation 37.09  
Snow  
Snow 0.00 in - - ()
Month to date snowfall  
Since 1 September snowfall  
Snow Depth -    
Sea Level Pressure  
Sea Level Pressure 29.92 in    
Wind  
Wind Speed 2 mph (West)    
Max Wind Speed 23 mph    
Max Gust Speed 33 mph    
Visibility 9 miles    
Events Rain    
T = Trace of Precipitation, MM = Missing Value Source: NWS Daily Summary

Daily Weather History Graph

Daily Weather History Graph

Search for Another Location

Airport or City:

Trip Planner

Search our weather history database for the weather conditions in past years. The results will help you decide how hot, cold, wet, or windy it might be!

Date:

Astronomy

Oct. 07, 2013 Rise Set
Actual Time 7:18 AM EDT 6:49 PM EDT
Civil Twilight 6:51 AM EDT 7:16 PM EDT
Nautical Twilight 6:20 AM EDT 7:47 PM EDT
Astronomical Twilight 5:49 AM EDT 8:18 PM EDT
Moon 10:04 AM EDT (10/7) 8:34 PM EDT (10/7)
Length of Visible Light 12h 24m
Length of Day
11h 31m
Waxing Crescent, 8% of the Moon is Illuminated
Oct 7
Waxing Crescent
Oct 11
First Quarter
Oct 18
Full
Oct 26
Last Quarter
Nov 3
New

Hourly Weather History & Observations

Time (EDT) Temp. Dew Point Humidity Pressure Visibility Wind Dir Wind Speed Gust Speed Precip Events Conditions
12:15 AM 62.6 °F 60.6 °F 93% 29.87 in 10.0 mi Calm Calm - N/A   Clear
12:35 AM 67.1 °F 61.5 °F 82% 29.87 in 10.0 mi Calm Calm - N/A   Clear
12:55 AM 68.7 °F 61.7 °F 78% 29.86 in 10.0 mi South 3.5 mph - N/A   Clear
1:15 AM 72.0 °F 61.7 °F 70% 29.86 in 10.0 mi SSE 4.6 mph - N/A   Clear
1:35 AM 71.6 °F 61.7 °F 71% 29.86 in 10.0 mi South 4.6 mph - N/A   Clear
1:55 AM 72.5 °F 62.1 °F 70% 29.85 in 10.0 mi South 6.9 mph - N/A   Clear
2:15 AM 72.7 °F 62.1 °F 69% 29.85 in 10.0 mi Calm Calm - N/A   Clear
2:35 AM 68.4 °F 60.6 °F 76% 29.85 in 10.0 mi Calm Calm - N/A   Clear
2:55 AM 70.2 °F 61.9 °F 75% 29.84 in 10.0 mi Calm Calm - N/A   Clear
3:15 AM 70.3 °F 62.1 °F 75% 29.83 in 10.0 mi Calm Calm - N/A   Scattered Clouds
3:35 AM 68.0 °F 61.9 °F 81% 29.82 in 10.0 mi Calm Calm - N/A   Scattered Clouds
3:55 AM 66.0 °F 61.7 °F 86% 29.81 in 10.0 mi Calm Calm - N/A   Scattered Clouds
4:15 AM 66.2 °F 61.0 °F 83% 29.81 in 10.0 mi Calm Calm - N/A   Clear
4:35 AM 70.5 °F 62.6 °F 76% 29.81 in 10.0 mi Calm Calm - N/A   Scattered Clouds
4:55 AM 70.3 °F 62.4 °F 76% 29.80 in 10.0 mi Calm Calm - N/A   Clear
5:15 AM 71.6 °F 63.0 °F 74% 29.80 in 10.0 mi Calm Calm - N/A   Clear
5:35 AM 72.3 °F 63.3 °F 73% 29.79 in 10.0 mi Calm Calm - N/A   Mostly Cloudy
5:55 AM 71.1 °F 63.9 °F 78% 29.79 in 10.0 mi Calm Calm - N/A Rain Light Rain
6:15 AM 70.2 °F 64.4 °F 82% 29.78 in 10.0 mi Calm Calm - N/A Rain Light Rain
6:35 AM 68.4 °F 64.6 °F 88% 29.79 in 7.0 mi Calm Calm - 0.02 in Rain Rain
6:55 AM 67.3 °F 65.3 °F 93% 29.77 in 5.0 mi Calm Calm - 0.06 in Rain Rain
7:15 AM 66.6 °F 64.8 °F 94% 29.78 in 5.0 mi Calm Calm - 0.01 in Rain Rain
7:35 AM 66.7 °F 65.1 °F 95% 29.78 in 3.0 mi Calm Calm - 0.07 in Rain Rain
7:55 AM 66.6 °F 65.3 °F 96% 29.78 in 5.0 mi Calm Calm - 0.14 in Rain Heavy Rain
8:15 AM 63.9 °F 60.8 °F 90% 29.80 in 10.0 mi North 4.6 mph - 0.02 in Rain Light Rain
8:35 AM 62.4 °F 58.5 °F 87% 29.82 in 7.0 mi Calm Calm - 0.08 in Rain Heavy Rain
8:55 AM 61.2 °F 57.6 °F 88% 29.84 in 5.0 mi North 5.8 mph - 0.16 in Rain Heavy Rain
9:15 AM 60.1 °F 57.4 °F 91% 29.84 in 5.0 mi Calm Calm - 0.06 in Rain Rain
9:35 AM 59.9 °F 57.4 °F 91% 29.85 in 10.0 mi Calm Calm - 0.07 in Rain Rain
9:55 AM 59.7 °F 57.2 °F 91% 29.86 in 7.0 mi Calm Calm - 0.12 in Rain Rain
10:15 AM 59.9 °F 57.7 °F 93% 29.87 in 3.0 mi Calm Calm - 0.04 in Rain Rain
10:35 AM 59.9 °F 57.7 °F 93% 29.87 in 7.0 mi Calm Calm - 0.08 in Rain Light Rain
10:55 AM 59.9 °F 57.9 °F 93% 29.86 in 10.0 mi Calm Calm - 0.09 in Rain Light Rain
11:15 AM 59.9 °F 57.9 °F 93% 29.86 in 10.0 mi Calm Calm - N/A   Overcast
11:35 AM 60.3 °F 57.7 °F 91% 29.86 in 10.0 mi Calm Calm - N/A   Overcast
11:55 AM 60.6 °F 58.1 °F 91% 29.86 in 10.0 mi Calm Calm - N/A   Overcast
12:15 PM 61.2 °F 57.4 °F 87% 29.88 in 10.0 mi Calm Calm - N/A   Mostly Cloudy
12:35 PM 63.1 °F 51.6 °F 66% 29.88 in 10.0 mi WNW 11.5 mph 17.3 mph N/A   Mostly Cloudy
12:55 PM 63.5 °F 51.8 °F 66% 29.88 in 10.0 mi West 12.7 mph 23.0 mph N/A   Mostly Cloudy
1:15 PM 64.9 °F 50.7 °F 60% 29.88 in 10.0 mi West 8.1 mph 21.9 mph N/A   Mostly Cloudy
1:35 PM 66.4 °F 51.1 °F 58% 29.87 in 10.0 mi WNW 15.0 mph - N/A   Mostly Cloudy
1:55 PM 66.9 °F 50.5 °F 56% 29.88 in 10.0 mi West 16.1 mph 23.0 mph N/A   Mostly Cloudy
2:15 PM 66.6 °F 51.8 °F 59% 29.89 in 10.0 mi WNW 6.9 mph - N/A   Scattered Clouds
2:35 PM 67.1 °F 49.3 °F 53% 29.90 in 10.0 mi West 23.0 mph 33.4 mph N/A   Clear
2:55 PM 66.4 °F 48.4 °F 52% 29.92 in 10.0 mi West 15.0 mph 26.5 mph N/A   Scattered Clouds
3:15 PM 64.9 °F 48.2 °F 55% 29.93 in 10.0 mi West 19.6 mph 23.0 mph N/A   Clear
3:35 PM 64.6 °F 46.2 °F 51% 29.95 in 10.0 mi West 18.4 mph 29.9 mph N/A   Clear
3:55 PM 64.6 °F 46.4 °F 52% 29.96 in 10.0 mi West 15.0 mph 27.6 mph N/A   Clear
4:15 PM 64.9 °F 46.9 °F 52% 29.97 in 10.0 mi West 10.4 mph - N/A   Clear
4:35 PM 64.0 °F 46.4 °F 53% 29.98 in 10.0 mi Calm Calm - N/A   Mostly Cloudy
4:55 PM 62.4 °F 45.7 °F 54% 29.98 in 10.0 mi WNW 4.6 mph 17.3 mph N/A   Overcast
5:15 PM 62.1 °F 44.6 °F 53% 29.98 in 10.0 mi Calm Calm - N/A   Mostly Cloudy
5:35 PM 61.0 °F 45.7 °F 57% 29.99 in 10.0 mi Calm Calm - N/A   Scattered Clouds
5:55 PM 60.4 °F 45.1 °F 57% 30.00 in 10.0 mi Calm Calm - N/A   Scattered Clouds
6:15 PM 59.7 °F 47.1 °F 63% 30.00 in 10.0 mi Calm Calm - N/A   Clear
6:35 PM 58.3 °F 46.9 °F 66% 30.01 in 10.0 mi Calm Calm - N/A   Clear
6:55 PM 58.1 °F 45.5 °F 63% 30.02 in 10.0 mi WNW 8.1 mph - N/A   Clear
7:15 PM 57.0 °F 45.7 °F 66% 30.04 in 10.0 mi Calm Calm - N/A   Clear
7:35 PM 56.5 °F 46.9 °F 70% 30.05 in 10.0 mi Calm Calm - N/A   Clear
7:55 PM 54.9 °F 47.1 °F 75% 30.06 in 10.0 mi Calm Calm - N/A   Clear
8:15 PM 53.6 °F 48.4 °F 82% 30.07 in 10.0 mi Calm Calm - N/A   Clear
8:35 PM 52.0 °F 47.8 °F 86% 30.09 in 10.0 mi Calm Calm - N/A   Clear
8:55 PM 51.8 °F 47.7 °F 86% 30.10 in 10.0 mi Calm Calm - N/A   Clear
9:15 PM 50.4 °F 46.8 °F 87% 30.10 in 10.0 mi Calm Calm - N/A   Clear
9:35 PM 49.3 °F 46.6 °F 90% 30.11 in 10.0 mi Calm Calm - N/A   Clear
9:55 PM 50.0 °F 47.3 °F 90% 30.11 in 10.0 mi Calm Calm - N/A   Clear
10:15 PM 50.0 °F 46.8 °F 89% 30.12 in 10.0 mi Calm Calm - N/A   Clear
10:35 PM 50.0 °F 47.5 °F 91% 30.12 in 10.0 mi Calm Calm - N/A   Clear
10:55 PM 48.7 °F 46.4 °F 92% 30.13 in 10.0 mi Calm Calm - N/A   Clear
11:15 PM 48.4 °F 45.9 °F 91% 30.13 in 10.0 mi Calm Calm - N/A   Clear
11:35 PM 48.0 °F 45.5 °F 91% 30.14 in 10.0 mi Calm Calm - N/A   Clear
11:55 PM 48.2 °F 46.2 °F 93% 30.14 in 10.0 mi Calm Calm - N/A   Clear